AO-07 1 07530U 74089B 20275.46792993 -.00000045 00000-0 65646-6 0 9991 2 07530 101.8135 244.6636 0012180 158.3087 319.3520 12.53645392099271 UO-11 1 14781U 84021B 20275.54525642 .00000128 00000-0 21733-4 0 9996 2 14781 097.5910 282.2441 0007744 203.3783 156.7080 14.83195482947557 LO-19 1 20442U 90005G 20275.85659276 -.00000006 00000-0 14252-4 0 9995 2 20442 98.7020 223.5133 0011304 196.8030 163.2781 14.32962032603857 HUBBLE 1 20580U 90037B 20275.55162789 .00000576 00000-0 24024-4 0 9997 2 20580 028.4707 337.8989 0002773 148.9001 317.2848 15.09440811472003 MET-2/21 1 22782U 93055A 20275.39842925 -.00000010 00000-0 -22050-4 0 9997 2 22782 082.5492 149.5236 0021471 299.9979 233.0090 13.83829532367694 AO-27 1 22825U 93061C 20275.23013218 .00000001 00000-0 18431-4 0 9996 2 22825 098.9267 280.3592 0009460 071.7248 288.4962 14.30093674408939 IO-26 1 22826U 93061D 20275.47152117 .00000009 00000-0 21321-4 0 9995 2 22826 098.9208 280.5419 0009889 060.1114 300.1049 14.30430244409201 FO-29 1 24278U 96046B 20275.27804317 -.00000042 00000-0 -91577-5 0 9998 2 24278 098.5891 011.2837 0351303 100.8366 263.2512 13.53099662191192 NOAA-15 1 25338U 98030A 20275.45619365 .00000034 00000-0 32735-4 0 9997 2 25338 98.7110 299.9353 0009597 319.1064 40.9395 14.25991761164335 GO-32 1 25397U 98043D 20275.56774520 -.00000013 00000-0 13538-4 0 9991 2 25397 098.7357 216.2931 0002327 100.4582 259.6859 14.23691257154650 ISS 1 25544U 98067A 20275.86192022 .00002734 00000-0 58087-4 0 9994 2 25544 51.6446 180.6309 0001344 103.5651 6.7478 15.48820944248559 NO-44 1 26931U 01043C 20275.57586205 -.00000032 00000-0 19380-4 0 9994 2 26931 067.0506 228.5298 0006632 276.2225 083.8120 14.30588932992258 SO-50 1 27607U 02058C 20275.83510737 .00000035 00000-0 25396-4 0 9994 2 27607 64.5563 49.1121 0035407 140.8428 219.5246 14.75663507956550 CO-55 1 27844U 03031E 20275.45105986 .00000063 00000-0 48093-4 0 9993 2 27844 098.6836 281.5912 0010962 106.8691 253.3689 14.22258671895167 CO-57 1 27848U 03031J 20275.29746996 .00000047 00000-0 40980-4 0 9990 2 27848 098.6900 282.0047 0010745 118.6981 241.5278 14.21842923894980 RS-22 1 27939U 03042A 20275.86660994 .00000078 00000-0 22718-4 0 9992 2 27939 98.1052 49.3639 0013304 22.8780 337.3018 14.66889566909618 NOAA-18 1 28654U 05018A 20275.55592145 .00000070 00000-0 62739-4 0 9999 2 28654 099.0329 332.9197 0013288 293.4821 066.4954 14.12543204791898 CO-58 1 28895U 05043F 20275.36698221 .00000163 00000-0 40263-4 0 9996 2 28895 098.0250 048.8460 0015682 309.6980 050.2840 14.63804033796109 Falconsat-3 1 30776U 07006E 20275.55439563 .00003366 00000-0 88353-4 0 9991 2 30776 035.4351 320.9736 0001724 062.2930 297.7972 15.38281775753186 CO-65 1 32785U 08021C 20275.47755002 .00000265 00000-0 34055-4 0 9996 2 32785 097.5828 258.8829 0014018 136.6671 223.5651 14.88522173673643 AAUSAT2 1 32788U 08021F 20275.46389113 .00000531 00000-0 53215-4 0 9999 2 32788 097.4949 275.2721 0013084 063.3231 296.9329 14.95161348675158 DO-64 1 32789U 08021G 20275.18167868 .00002014 00000-0 13484-3 0 9991 2 32789 097.4095 314.2473 0010732 318.9474 041.0946 15.07965102677749 CO-66 1 32791U 08021J 20275.49596947 .00000312 00000-0 36725-4 0 9995 2 32791 097.5487 265.0059 0014790 107.0597 253.2244 14.91120469674186 RS-30 1 32953U 08025A 20275.47409256 .00000037 00000-0 19437-3 0 9997 2 32953 82.5045 211.9691 0018522 179.2286 180.8821 12.43098386560801 PRISM 1 33493U 09002B 20275.59156165 .00001121 00000-0 10237-3 0 9998 2 33493 098.1515 220.3312 0016313 066.5063 293.7870 14.97149347635588 NOAA-19 1 33591U 09005A 20275.77996541 -.00000008 00000-0 21018-4 0 9994 2 33591 99.1970 283.9003 0014677 135.2002 225.0356 14.12433439600408 TISAT-1 1 36799U 10035E 20275.44250611 .00000592 00000-0 65308-4 0 9994 2 36799 098.2020 089.8485 0011926 348.9268 011.1685 14.91434788554722 JUGNU 1 37839U 11058B 20275.58042373 .00000313 00000-0 25041-4 0 9996 2 37839 019.9626 359.1648 0019016 117.8789 271.2574 14.12689722463811 SRMSAT 1 37841U 11058D 20275.45761279 .00000372 00000-0 59504-4 0 9994 2 37841 019.9725 066.4284 0011851 328.7996 062.1609 14.10673597463132 AO-71 1 37854U 11061E 20275.36735288 .00002555 00000-0 13400-3 0 9992 2 37854 101.7106 061.3277 0157524 106.7620 255.0943 15.07567842487436 HRBE 1 37855U 11061F 20275.38179310 .00002428 00000-0 12554-3 0 9991 2 37855 101.7234 058.4533 0170202 120.4945 241.3197 15.06593455487158 HORYU-2 1 38340U 12025D 20275.71943377 .00000220 00000-0 39945-4 0 9993 2 38340 98.2699 331.7712 0012588 65.5006 294.7514 14.75895125450630 RS-40 1 38735U 12041C 20275.49088939 -.00000000 00000-0 -72400-4 0 9999 2 38735 082.4733 294.5455 0015828 292.6551 067.2859 12.42580475371021 BEESAT-3 1 39135U 13015F 20275.55425507 .00001404 00000-0 76992-4 0 9996 2 39135 064.8677 318.7059 0030975 226.3975 133.4581 15.18392924411322 BEESAT-2 1 39136U 13015G 20275.44677048 .00001645 00000-0 89729-4 0 9993 2 39136 064.8747 324.4071 0035253 268.1809 091.5279 15.17780904411206 ZACUBE-1 1 39417U 13066B 20275.48559494 .00000280 00000-0 41428-4 0 9997 2 39417 097.5718 267.6431 0057361 290.8578 068.6499 14.81326357370735 TRITON-1 1 39427U 13066M 20275.80781849 .00000298 00000-0 54948-4 0 9995 2 39427 97.7375 230.8939 0115058 97.7771 263.6516 14.68051321367463 GOMX-1 1 39430U 13066Q 20275.45819611 .00000176 00000-0 41064-4 0 9999 2 39430 97.7942 207.6066 0149804 210.2518 148.9962 14.59441386365267 LO-74 1 39440U 13066AA 20275.44609348 .00000346 00000-0 54890-4 0 9993 2 39440 097.6421 252.1486 0080077 357.2190 002.8564 14.76061327368210 AO-73 1 39444U 13066AE 20275.48951444 .00000346 00000-0 48771-4 0 9999 2 39444 097.5653 269.9323 0056386 282.3306 077.1599 14.82190163369075 SPROUT 1 39770U 14029E 20275.81203677 .00001322 00000-0 15052-3 0 9996 2 39770 97.9025 21.6794 0008685 346.8702 13.2302 14.87885841344877 DUCHIFAT-1 1 40021U 14033M 20275.58606576 .00000505 00000-0 56947-4 0 9992 2 40021 097.9455 207.4909 0011682 302.0928 057.9155 14.90988081341706 NANOSATCBR1 1 40024U 14033Q 20275.53421270 .00000457 00000-0 53084-4 0 9991 2 40024 097.9286 203.4667 0011068 307.8423 052.1792 14.90145137341036 DTUSAT-2 1 40030U 14033W 20275.47871796 .00000364 00000-0 44949-4 0 9990 2 40030 097.9012 197.0030 0010843 312.1824 047.8471 14.88768274341299 EO-80 1 40032U 14033Y 20275.56838755 .00000334 00000-0 41761-4 0 9996 2 40032 097.9020 197.0955 0010767 312.8168 047.2142 14.88719575340770 ANTELSAT 1 40034U 14033AA 20275.82336034 .00000251 00000-0 44353-4 0 9998 2 40034 97.7019 126.3566 0059142 16.3303 343.9794 14.74304103338080 VELOX-1 1 40057U 14034E 20275.79620562 .00000434 00000-0 67831-4 0 9991 2 40057 98.2945 55.7702 0011377 159.3843 200.7827 14.77935766337344 DAURIA DX 1 1 40071U 14037C 20275.76532474 .00000153 00000-0 27149-4 0 9997 2 40071 98.4631 100.0763 0008906 149.6926 210.4809 14.81395140336992 HODOYOSHI-1 1 40299U 14070B 20275.76162764 .00001086 00000-0 47389-4 0 9991 2 40299 97.3159 349.9964 0013044 173.3638 339.6593 15.24189586328007 CHUBUSAT-1 1 40300U 14070C 20275.82140543 .00001164 00000-0 52781-4 0 9991 2 40300 97.2790 341.7547 0018945 195.3208 301.8522 15.22641169327694 QSAT-EOS 1 40301U 14070D 20275.81018851 .00003313 00000-0 12564-3 0 9999 2 40301 97.2855 347.7979 0025262 167.4366 316.5047 15.27267179328165 FIREBIRD FU3 1 40377U 15003B 20275.49462880 .00002106 00000-0 83485-4 0 9998 2 40377 099.0875 357.3697 0121962 320.2299 039.0037 15.20450564313415 FIREBIRD FU4 1 40378U 15003C 20275.47766644 .00002356 00000-0 92720-4 0 9991 2 40378 099.0878 357.4555 0122104 320.1315 039.0992 15.20471083313420 GRIFEX 1 40379U 15003D 20275.50965249 .00001464 00000-0 64550-4 0 9997 2 40379 099.0927 348.7794 0131765 347.2097 012.5798 15.16696833312914 NO-84 1 40654U 15025D 20274.33128477 .00026956 00000-0 28334-3 0 499 2 40654 54.9828 176.4511 0114234 100.7877 260.6068 15.56372730185345 DEORBITSAIL 1 40719U 15032E 20275.38518955 .00000466 00000-0 73044-4 0 9990 2 40719 097.8549 161.3420 0015084 223.0004 137.0029 14.77078723281730 NUDT-PHONESAT 1 40900U 15049B 20275.74070997 .00003785 00000-0 15658-3 0 9992 2 40900 97.4306 285.7960 0011751 338.1834 139.7287 15.24517432279386 XW-2A 1 40903U 15049E 20275.72374674 .00003686 00000-0 84091-4 0 9990 2 40903 97.2775 324.7078 0011360 232.7369 275.3914 15.43484722282866 XW-2C 1 40906U 15049H 20275.78471740 .00000903 00000-0 50145-4 0 9993 2 40906 97.4813 275.5939 0015197 11.8981 161.4250 15.16194628278362 XW-2D 1 40907U 15049J 20275.81088603 .00001201 00000-0 65100-4 0 9999 2 40907 97.4793 275.3443 0014283 9.1183 72.9770 15.16444409278398 LILACSAT-2 1 40908U 15049K 20275.78558075 .00000615 00000-0 37286-4 0 9993 2 40908 97.4959 273.5255 0016444 19.8685 104.4670 15.14115847278085 XW-2E 1 40909U 15049L 20275.78272696 .00001690 00000-0 84787-4 0 9998 2 40909 97.4664 278.9678 0013237 359.5797 173.5171 15.18632020278660 XW-2F 1 40910U 15049M 20275.82447979 .00001753 00000-0 89010-4 0 9997 2 40910 97.4715 278.0903 0014465 357.8561 125.5680 15.18140482278472 XW-2B 1 40911U 15049N 20275.87259461 .00001349 00000-0 72812-4 0 9993 2 40911 97.4802 276.1031 0014695 9.2164 108.3717 15.16369814278293 DCBB 1 40912U 15049P 20275.84768726 .00001946 00000-0 91893-4 0 9993 2 40912 97.4502 282.3600 0013809 333.3718 147.8117 15.20561494278884 TW-1C 1 40926U 15051B 20275.82330184 .00044065 00000-0 35301-3 0 9992 2 40926 97.0720 328.5523 0005733 69.6080 20.7519 15.70915544283696 TW-1A 1 40928U 15051D 20275.77199117 .00005400 00000-0 12346-3 0 9991 2 40928 97.1038 301.0111 0010818 149.2277 328.2220 15.43182498281768 IO-86 1 40931U 15052B 20275.52476624 .00000851 00000-0 29343-4 0 9991 2 40931 5.9982 299.0042 0013754 339.8276 20.1750 14.76645891270966 LQSat 1 40958U 15057A 20275.75883637 .00000033 00000-0 12669-4 0 9991 2 40958 97.8421 335.6118 0018537 164.2064 195.9726 14.73131768268155 ATHENOXAT-1 1 41168U 15077C 20275.60234386 .00002666 00000-0 10348-3 0 9997 2 41168 14.9892 2.4818 0011157 166.2354 193.8272 15.14594651265455 ChubuSat-2 1 41338U 16012B 20275.61830114 .00000437 00000-0 27209-4 0 9997 2 41338 031.0044 031.5596 0013616 088.2274 271.9921 15.00336430253691 ChubuSat-3 1 41339U 16012C 20275.73447856 .00000489 00000-0 31119-4 0 9990 2 41339 31.0131 28.3307 0013438 95.8260 264.3912 15.00498089253712 Horyu-4 1 41340U 16012D 20275.59552120 .00000687 00000-0 45107-4 0 9999 2 41340 031.0063 015.8052 0013740 122.2303 237.9667 15.01569019253845 OUFTI-1 1 41458U 16025C 20275.52079423 .00003012 00000-0 15256-3 0 9992 2 41458 098.1156 031.7840 0161887 212.0376 147.0931 15.07159009243459 e-st@r-II 1 41459U 16025D 20275.86354557 .00004455 00000-0 22465-3 0 9996 2 41459 98.1129 31.4692 0164089 213.1896 145.8954 15.06704576243464 AAUSAT4 1 41460U 16025E 20275.83432841 .00004993 00000-0 24346-3 0 9995 2 41460 98.1109 34.1593 0152483 200.7137 158.7867 15.09133420243686 LO-87 1 41557U 16033B 20275.81450840 .00002511 00000-0 93643-4 0 9999 2 41557 97.4025 5.3543 0015167 74.4251 78.1730 15.28267082242010 NuSat2 1 41558U 16033C 20275.83045608 .00002826 00000-0 98876-4 0 9996 2 41558 97.4089 8.0791 0014093 70.2566 44.2709 15.30279007242154 Lapan A3 1 41603U 16040E 20275.74292233 .00000361 00000-0 19863-4 0 9994 2 41603 97.2981 325.8909 0012893 182.9334 315.3470 15.19877775237283 Swayam 1 41607U 16040J 20275.41117080 .00002514 00000-0 10484-3 0 9999 2 41607 097.3071 332.2365 0013464 165.9712 194.1903 15.24522882237569 Pratham 1 41783U 16059A 20275.40922585 .00000074 00000-0 23515-4 0 9996 2 41783 098.0053 327.8267 0033093 344.8466 015.1742 14.63076049214375 AlSat 1N 1 41789U 16059G 20275.81339145 .00000058 00000-0 19945-4 0 9995 2 41789 98.0095 331.2903 0027599 330.7114 29.2534 14.64344706214599 ScatSat 1 41790U 16059H 20275.73686700 .00000004 00000-0 11852-4 0 9990 2 41790 98.1520 312.8086 0005164 328.3147 31.7736 14.50929134212639 TY-1 1 41844U 16066D 20275.80897311 .00001519 00000-0 63616-4 0 9995 2 41844 97.4040 282.7995 0014195 336.2264 148.9946 15.25021893216472 Pegasus-1 1 41846U 16066F 20275.41462238 .00000329 00000-0 61254-4 0 9994 2 41846 098.6508 326.5207 0365481 277.6393 078.3436 14.37825435204199 CAS-2T 1 41847U 16066G 20275.17214905 .00000097 00000-0 25956-4 0 9995 2 41847 098.6429 326.6912 0364428 273.8781 082.0824 14.38094296204619 EO-88 1 42017U 17008BX 20275.47139752 .00002268 00000-0 88888-4 0 9996 2 42017 097.3507 341.4489 0004825 319.2177 040.8700 15.26787853201722 CAS-4B 1 42759U 17034B 20275.73257149 .00000483 00000-0 42709-4 0 9997 2 42759 43.0184 163.0948 0011425 336.7386 122.3235 15.09896983182039 CAS-4A 1 42761U 17034D 20275.86087414 .00000508 00000-0 44155-4 0 9995 2 42761 43.0190 161.6207 0011845 337.7027 72.9410 15.09976601182053 UCLSat 1 42765U 17036A 20275.41926784 .00001970 00000-0 84678-4 0 9992 2 42765 097.2899 326.7629 0011669 021.6084 338.5643 15.23756369182717 NIUSat 1 42766U 17036B 20275.39814305 .00001483 00000-0 67969-4 0 9998 2 42766 097.2895 323.9199 0015640 014.3579 345.8099 15.21899285181804 LituanicaSAT 2 1 42768U 17036D 20275.22213316 .00003515 00000-0 14565-3 0 9998 2 42768 097.2961 326.7224 0014495 010.1510 350.0018 15.24461636181959 Aalto 1 1 42775U 17036L 20275.17715438 .00001209 00000-0 55818-4 0 9997 2 42775 097.2872 324.0396 0014097 015.0987 345.0667 15.21992067181755 URSA MAIOR 1 42776U 17036M 20275.41629836 .00001364 00000-0 62250-4 0 9991 2 42776 097.2886 324.6028 0013859 014.0411 346.1208 15.22189473181804 Max Valier Sat 1 42778U 17036P 20275.40624681 .00001517 00000-0 67721-4 0 9993 2 42778 097.2942 326.0573 0012460 017.8127 342.3545 15.22798555181856 Pegasus 1 42784U 17036V 20275.40079968 .00001852 00000-0 80527-4 0 9993 2 42784 097.2904 326.3912 0012260 022.3102 337.8666 15.23432825181908 NUDATSat 1 42787U 17036Y 20275.56028700 .00003057 00000-0 12570-3 0 9992 2 42787 097.2940 328.1971 0011663 017.2490 342.9144 15.24853906181866 SUCHAI 1 1 42788U 17036Z 20275.38553549 .00002168 00000-0 92166-4 0 9999 2 42788 097.2913 327.0661 0011714 020.8529 339.3184 15.24023984182018 SKCUBE 1 42789U 17036AA 20275.44315054 .00001881 00000-0 80776-4 0 9999 2 42789 097.2908 326.9406 0011623 021.1988 338.9729 15.23847551181933 VZLUSAT 1 1 42790U 17036AB 20275.41915771 .00002745 00000-0 11324-3 0 9992 2 42790 097.2935 328.0521 0010997 018.9635 341.2011 15.24832512181991 VENTA 1 1 42791U 17036AC 20275.48438646 .00001868 00000-0 80316-4 0 9994 2 42791 097.2904 327.0168 0011332 021.7705 338.4012 15.23820511181936 Robusta 1B 1 42792U 17036AD 20275.38345158 .00002165 00000-0 92017-4 0 9991 2 42792 097.2911 327.1681 0011219 021.9187 338.2528 15.24050055181957 D-SAT 1 42794U 17036AF 20275.85844323 .00000281 00000-0 29612-4 0 9991 2 42794 97.4863 303.2040 0126313 10.5545 349.8279 14.91329370178550 TechnoSat 1 42829U 17042E 20275.71221302 .00000089 00000-0 14313-4 0 9996 2 42829 97.5027 152.4098 0012764 293.6903 66.2977 14.91137178175123 QIKCOM-1 1 42983U 98067NF 20275.83477119 .00006173 00000-0 74048-4 0 9996 2 42983 51.6371 128.9341 0004145 100.5661 259.5801 15.62422823166910 AO-91 1 43017U 17073E 20275.40570511 .00001059 00000-0 86424-4 0 9995 2 43017 097.7151 183.5234 0258055 065.2232 297.5592 14.79037128154829 EcAMSat 1 43019U 98067NG 20275.81724620 .00014166 00000-0 13004-3 0 9992 2 43019 51.6393 110.9058 0003714 96.3905 263.7514 15.68016869249471 PICSAT 1 43132U 18004X 20275.44794340 .00002327 00000-0 96981-4 0 9998 2 43132 097.4391 346.1056 0010618 048.6439 311.5710 15.24671837151204 AO-92 1 43137U 18004AC 20275.24588682 .00001710 00000-0 72815-4 0 9996 2 43137 097.4371 345.6520 0010331 051.1295 309.0863 15.24319415151165 TianYi 2 1 43155U 18008A 20275.85347245 .00001650 00000-0 10004-3 0 9999 2 43155 97.4379 342.1881 0018661 137.5619 334.0087 15.11777115148992 Zhou Enlai 1 43156U 18008B 20275.84915177 .00001616 00000-0 99370-4 0 9990 2 43156 97.4430 342.0255 0015698 135.8177 335.9023 15.11336681148946 TianYi 6 1 43158U 18008D 20275.77336992 .00000928 00000-0 59473-4 0 9991 2 43158 97.4360 340.8745 0014281 134.1663 8.6706 15.10854476148879 S-Net D 1 43186U 18014G 20275.80569629 .00000211 00000-0 23407-4 0 9991 2 43186 97.6845 181.8709 0010052 223.7118 136.3309 14.96852631145605 S-Net B 1 43187U 18014H 20275.20390279 .00000171 00000-0 19983-4 0 9998 2 43187 097.6843 181.2548 0010007 225.9603 134.0795 14.96852003145519 S-Net A 1 43188U 18014J 20275.80541931 .00000197 00000-0 22176-4 0 9994 2 43188 97.6845 181.8797 0010039 223.8209 136.2217 14.96852114145604 S-Net C 1 43189U 18014K 20275.47164431 .00000186 00000-0 21242-4 0 9995 2 43189 097.6842 181.5125 0010025 224.9156 135.1255 14.96851188144106 FMN 1 1 43192U 18015A 20275.56700323 .00004025 00000-0 15873-3 0 9994 2 43192 97.4563 44.6535 0017135 77.2150 344.3266 15.26015527148084 Shaonian Xing 1 43199U 18015H 20275.82284494 .00002963 00000-0 11736-3 0 9999 2 43199 97.4353 42.8960 0018284 85.1022 19.0149 15.26068098148180 UBAKUSAT 1 43467U 98067NQ 20275.77781165 .00071084 00000-0 32930-3 0 9992 2 43467 51.6324 92.1152 0001134 217.4450 142.6474 15.82798749136906 EnduroSat One 1 43551U 98067NZ 20275.72420968 .00434107 97656-4 63174-3 0 9992 2 43551 51.6244 80.9723 0006065 280.2755 79.7573 16.04594097127279 EQUISat 1 43552U 98067PA 20275.54012911 .00066618 00000-0 32550-3 0 9993 2 43552 051.6284 101.1250 0003702 173.6945 186.4105 15.81673525126955 UiTMSat 1 1 43589U 98067PD 20275.21565114 .00143882 00000-0 49774-3 0 9990 2 43589 051.6298 097.2258 0003778 215.6805 144.3948 15.88551002122718 Maya 1 1 43590U 98067PE 20275.77365978 .00126493 00000-0 43488-3 0 9994 2 43590 51.6242 94.1368 0003480 220.9205 139.1540 15.88730773122736 Bhutan 1 1 43591U 98067PF 20275.73109407 .00124402 00000-0 42046-3 0 9991 2 43591 51.6335 94.0035 0003795 222.5244 137.5468 15.89076895122730 SiriusSat 1 1 43595U 98067PG 20274.57796492 .00050480 00000-0 23108-3 0 9994 2 43595 51.6264 107.9582 0001311 0.9643 359.3250 15.83190770121622 SiriusSat 2 1 43596U 98067PH 20274.58375604 .00051914 00000-0 23860-3 0 9992 2 43596 51.6220 108.8445 0000348 177.1050 183.2453 15.83093020121619 SurfSat 1 43614U 18070B 20275.55841155 .00004353 00000-0 11016-3 0 9991 2 43614 093.0289 198.5077 0012170 291.6679 068.3279 15.39730078114801 CP-7 DAVE 1 43615U 18070C 20275.47073295 .00004028 00000-0 10255-3 0 9998 2 43615 093.0292 198.4549 0012350 291.6245 068.3693 15.39553934114789 ELFIN-B 1 43616U 18070D 20275.80073915 .00005596 00000-0 13504-3 0 9996 2 43616 93.0251 198.5730 0012553 291.1821 68.8093 15.41155316114894 ELFIN-A 1 43617U 18070E 20275.55998515 .00006461 00000-0 15468-3 0 9994 2 43617 093.0303 199.0752 0011870 288.1425 071.8537 15.41393923114862 STARS-Me Mother 1 43640U 98067PQ 20275.16039578 .00025390 00000-0 22310-3 0 9992 2 43640 051.6331 130.9746 0003801 089.8888 270.2544 15.68627258113301 CubeBel 1 1 43666U 18083E 20275.80668317 .00001809 00000-0 90933-4 0 9996 2 43666 97.4836 301.1985 0014902 356.8910 117.8938 15.18454420106759 Changshagaoxin 1 43669U 18083H 20275.47297047 .00001418 00000-0 74153-4 0 9992 2 43669 97.4721 298.7361 0010714 354.9709 111.0476 15.17442694106602 Ten-Koh 1 43677U 18084G 20275.37186494 .00000144 00000-0 20642-4 0 9993 2 43677 097.8941 032.2472 0016428 164.2995 195.8735 14.90321960104710 PO-101 1 43678U 18084H 20275.79832756 -.00000096 00000-0 -38325-5 0 9995 2 43678 97.8953 34.2678 0009683 177.1997 182.9269 14.91653772104870 IRVINE 01 1 43693U 18088D 20275.33582287 .00004626 00000-0 19272-3 0 9996 2 43693 085.0393 006.9014 0015352 258.9585 100.9931 15.23329803104962 QO-100 1 43700U 18090A 20275.51168206 .00000133 00000-0 00000-0 0 9994 2 43700 000.0215 150.2392 0002006 059.4017 011.0609 01.00272965006779 Reaktor Hello World 1 43743U 18096AA 20275.48590561 .00002001 00000-0 76455-4 0 9993 2 43743 097.4139 348.7932 0019380 111.6186 248.7120 15.27648153102589 MinXSS-2 1 43758U 18099A 20275.76916682 .00000281 00000-0 30325-4 0 9993 2 43758 97.6985 345.9323 0015283 188.5365 171.5598 14.95742593 99842 AO-95 1 43770U 18099N 20275.45921600 .00000343 00000-0 36499-4 0 9996 2 43770 097.6972 344.9471 0014190 197.7626 162.3100 14.95050207099754 RANGE-B 1 43772U 18099Q 20275.80006490 .00000704 00000-0 69089-4 0 9990 2 43772 97.7042 345.9159 0014207 183.4758 176.6367 14.95259920 99808 RANGE-A 1 43773U 18099R 20275.45197410 .00000027 00000-0 77014-5 0 9991 2 43773 097.6913 344.4978 0013446 184.4666 175.6437 14.95012921099749 MOVE-II 1 43780U 18099Y 20275.44485864 .00000286 00000-0 31014-4 0 9997 2 43780 097.6982 345.2186 0013154 194.8279 165.2558 14.95498095099754 SNUSat 2 1 43782U 18099AA 20275.46862505 .00000621 00000-0 61431-4 0 9991 2 43782 097.6969 345.2061 0012756 183.1042 177.0102 14.95312469099766 SnugLite 1 43784U 18099AC 20275.16220788 .00000482 00000-0 48768-4 0 9994 2 43784 97.6938 344.7019 0014719 192.6097 167.4758 14.95420601 99732 ITASat 1 1 43786U 18099AE 20275.23167830 .00000331 00000-0 35170-4 0 9998 2 43786 97.6993 345.2191 0014831 191.7052 168.3826 14.95384189 99745 EAGLET 1 1 43790U 18099AJ 20275.46441775 .00000365 00000-0 37862-4 0 9998 2 43790 097.6976 345.7492 0013228 195.2437 164.8387 14.95760195099495 ESEO 1 43792U 18099AL 20275.28268633 .00000632 00000-0 61997-4 0 9993 2 43792 097.6952 345.3393 0012983 191.7847 168.3072 14.95626522099529 CSIM 1 43793U 18099AM 20275.22609349 .00001048 00000-0 98109-4 0 9998 2 43793 097.6959 345.3417 0012862 188.3133 171.7877 14.96153794099506 Astrocast 0.1 1 43798U 18099AS 20275.44274543 -.00000206 00000-0 -13241-4 0 9992 2 43798 097.6980 345.8491 0012525 174.1587 185.9782 14.95915580099795 JO-97 1 43803U 18099AX 20275.43402976 .00000297 00000-0 31918-4 0 9990 2 43803 097.6953 345.2125 0014791 191.3372 168.7518 14.95573716099775 Suomi 100 1 43804U 18099AY 20275.43575291 .00000166 00000-0 20080-4 0 9995 2 43804 097.6952 345.1980 0014867 191.5402 168.5481 14.95559037099781 Al Farabi 2 1 43805U 18099AZ 20275.86925494 .00000385 00000-0 39717-4 0 9997 2 43805 97.6963 345.7400 0014981 190.5983 169.4926 14.95689445 99856 PWSat 2 1 43814U 18099BJ 20275.81762200 .00058140 00000-0 28271-2 0 9999 2 43814 97.7943 359.1375 0010747 177.6544 182.4741 15.18141106 99820 CHOMPTT 1 43855U 18104G 20275.47955307 .00001387 00000-0 56801-4 0 9998 2 43855 085.0333 105.0561 0018505 028.1541 332.0698 15.23138821099662 ISAT 1 43879U 18111D 20275.76111402 .00000811 00000-0 76782-4 0 9995 2 43879 97.6925 181.4342 0011622 246.8717 113.1291 14.96312310 94361 UWE-4 1 43880U 18111E 20275.79083997 -.00000044 00000-0 12481-5 0 9993 2 43880 97.6942 181.7921 0010900 249.0088 110.9967 14.96559480 94391 Sparrow 1 43881U 18111F 20275.56957978 .00000823 00000-0 77250-4 0 9996 2 43881 097.6955 181.6616 0010779 246.2955 113.7136 14.96605398096360 Lume 1 1 43908U 18111AJ 20275.40313832 .00001737 00000-0 71438-4 0 9991 2 43908 097.2531 172.1600 0022492 125.6342 234.6995 15.25236758098179 FO-98 1 43933U 19003B 20275.35913300 .00001111 00000-0 51076-4 0 9992 2 43933 097.2192 320.9840 0016534 224.7689 135.2214 15.22252969094641 FO-99 1 43937U 19003F 20275.23464813 .00002068 00000-0 86067-4 0 9993 2 43937 097.2157 322.4136 0023090 206.6960 153.3091 15.24622947094752 Delphini 1 1 44030U 98067PW 20275.05799067 .00040981 00000-0 32781-3 0 9996 2 44030 051.6322 137.0308 0004206 139.2908 220.8405 15.70647551095082 MYSat 1 1 44045U 18092F 20275.37404225 .00004375 00000-0 12860-3 0 9999 2 44045 051.6378 247.8008 0011158 351.4291 008.6501 15.37208047091578 AstroCast 0.2 1 44083U 19018F 20275.75405604 .00001257 00000-0 58412-4 0 9994 2 44083 97.4105 335.2742 0013878 153.3500 206.8453 15.21749933 83549 AISTechSat 3 1 44103U 19018AB 20275.79068596 .00001498 00000-0 65944-4 0 9991 2 44103 97.3980 335.5472 0013636 166.9553 288.2129 15.23327267 83622 AISat 1 1 44104U 19018AC 20275.76167187 .00001477 00000-0 49255-4 0 9999 2 44104 97.4551 346.0605 0057494 193.7332 166.2348 15.31228666 84076 Raavana-1 1 44329U 98067QE 20275.29174877 .00020149 00000-0 24911-3 0 9999 2 44329 051.6387 162.8150 0005467 050.7439 309.4038 15.60091623073513 Uguisu 1 44330U 98067QF 20275.05458484 .00022833 00000-0 28268-3 0 9995 2 44330 051.6363 164.2015 0005461 049.9156 310.2315 15.59969074073458 NepaliSat-1 1 44331U 98067QG 20275.41120716 .00019170 00000-0 23721-3 0 9999 2 44331 051.6364 162.0853 0005528 054.3370 305.8137 15.60106645073527 Prox-1 1 44339U 19036A 20275.37307178 .00001166 00000-0 22633-3 0 9997 2 44339 023.9990 165.3461 0011368 227.1950 132.7585 14.53134905067557 Oculus-ASR 1 44348U 19036K 20275.81107168 .00011100 00000-0 16133-3 0 9990 2 44348 28.5165 44.8427 0360150 3.9110 356.4185 15.04332978 69829 Armadillo 1 44352U 19036P 20275.47427786 .00016721 00000-0 24034-3 0 9991 2 44352 028.5317 039.6661 0344761 011.2882 349.5217 15.07873337069790 NO-104 1 44354U 19036R 20275.46952007 .00011579 00000-0 16533-3 0 9992 2 44354 028.5310 043.4090 0356674 004.8768 355.5171 15.05433684069804 NO-103 1 44355U 19036S 20275.37175438 .00024501 00000-0 32935-3 0 9991 2 44355 028.5301 028.8909 0328794 028.5045 333.3116 15.12595680069945 CP9 1 44360U 19036X 20275.46597017 .00040772 -52423-5 43632-3 0 9994 2 44360 028.5108 005.1146 0302411 068.2591 294.9908 15.21988009070069 Move-IIb 1 44398U 19038N 20275.60848516 .00002538 00000-0 14820-3 0 9999 2 44398 097.5469 235.5564 0026245 118.7540 241.6331 15.12550653068620 SONATE 1 44400U 19038Q 20275.60631278 .00001142 00000-0 69733-4 0 9992 2 44400 097.5512 235.5600 0026510 118.2342 242.1568 15.12055722068618 BeeSat 9 1 44412U 19038AC 20275.39611566 .00001309 00000-0 78566-4 0 9998 2 44412 097.5504 235.4800 0023952 124.1243 236.2264 15.12459295068289 JAISAT-1 1 44419U 19038F 20275.44869816 .00001381 00000-0 81674-4 0 9998 2 44419 097.5506 235.8769 0022849 122.8078 237.5358 15.12943601068626 LightSail-2 1 44420U 19036AC 20275.34176344 .00007762 00000-0 16525-2 0 9994 2 44420 024.0067 158.2707 0023198 216.9951 142.8940 14.56642473065776 Taurus 1 1 44530U 19059C 20275.77333395 .00001396 00000-0 40686-3 0 9992 2 44530 98.5652 357.8707 0014872 198.4375 161.6292 14.45669624 55700 MO-106 1 44830U 19084G 20275.70420508 .00715929 26759-3 89815-3 0 9992 2 44830 96.9417 147.0669 0011324 181.3803 178.7451 16.07546859 47303 TRSI-Sat 1 44831U 19084H 20275.38694915 .00533241 13403-3 83451-3 0 9999 2 44831 96.9582 146.6399 0012124 180.4184 179.7089 16.03886011 47258 Duchifat 3 1 44854U 19089C 20275.19928140 .00000692 00000-0 62217-4 0 9991 2 44854 36.9660 193.3847 0008277 206.5740 153.4590 14.99141592 44178 OPS-SAT 1 44878U 19092F 20275.53576417 .00001359 00000-0 74820-4 0 9999 2 44878 097.4711 097.0386 0013931 355.5594 004.5513 15.15664706043600 TO-108 1 44881U 19093C 20275.50522730 -.00000125 00000-0 -91456-5 0 9997 2 44881 97.9510 350.7984 0016187 55.8933 304.3805 14.81418521 42396 FloripaSat 1 1 44885U 19093G 20275.72759247 .00000346 00000-0 50234-4 0 9991 2 44885 97.9516 351.2685 0015984 64.9077 295.3797 14.82085257 42446 RS-44 1 44909U 19096E 20275.53029318 .00000021 00000-0 43994-4 0 9994 2 44909 082.5168 284.8292 0216980 338.7946 020.4262 12.79708409035752 SwampSat-2 1 45115U 19071E 20275.24642788 .00022425 00000-0 61129-3 0 9998 2 45115 51.6403 209.3641 0013154 81.4545 278.7929 15.37297827 37389 HO-107 1 45119U 19071J 20275.27974374 .00002860 00000-0 97081-4 0 9992 2 45119 051.6423 211.7900 0012871 075.8815 284.3597 15.33927171037362 Phoenix 1 45258U 98067RB 20275.54805860 .00007471 00000-0 13040-3 0 9996 2 45258 051.6411 179.5216 0005999 023.8183 336.3083 15.51772345034948 AztechSat-1 1 45261U 98067RE 20275.54796261 .00014499 00000-0 23044-3 0 9997 2 45261 051.6407 178.0316 0007644 041.5611 318.5960 15.53549767034997 QARMAN 1 45263U 98067RG 20275.44271484 .00012544 00000-0 20729-3 0 9999 2 45263 051.6409 179.5751 0007227 037.4103 322.7389 15.52609890034992 Quetzal 1 1 45598U 98067RL 20275.44895919 .00011331 00000-0 19475-3 0 9994 2 45598 051.6418 181.1180 0003836 115.9987 244.1398 15.51628334024249 BY70-2 1 45857U 20042B 20275.79934890 .00001202 00000-0 18062-3 0 9997 2 45857 98.0073 348.0642 0009994 332.4806 27.5867 14.76331866 13387 UPMSat 2 1 46276U 20061E 20275.52568126 .00000717 00000-0 40708-4 0 9993 2 46276 097.4621 348.1406 0002211 132.3157 227.8263 15.16059215004302 AmicalSat 1 46287U 20061R 20275.83908886 .00000789 00000-0 52473-4 0 9991 2 46287 97.5172 348.4332 0001147 256.8848 103.2253 15.09960810 4314 /EX
